TimeAST,TemperatureF,Dew PointF,Humidity,Sea Level PressureIn,VisibilityMPH,Wind Direction,Wind SpeedMPH,Gust SpeedMPH,PrecipitationIn,Events,Conditions,WindDirDegrees,DateUTC
12:56 AM,75.9,69.1,79,30.09,10.0,ESE,4.6,-,N/A,,Scattered Clouds,120,2013-02-19 04:56:00
1:56 AM,75.0,69.1,82,30.06,10.0,SE,3.5,-,N/A,,Scattered Clouds,130,2013-02-19 05:56:00
2:56 AM,75.0,66.0,73,30.05,10.0,ESE,4.6,-,N/A,,Partly Cloudy,120,2013-02-19 06:56:00
3:56 AM,75.0,68.0,79,30.05,10.0,Calm,Calm,-,N/A,,Scattered Clouds,0,2013-02-19 07:56:00
4:56 AM,73.9,66.9,79,30.05,10.0,ESE,3.5,-,N/A,,Scattered Clouds,120,2013-02-19 08:56:00
5:56 AM,73.0,66.9,81,30.06,10.0,SE,3.5,-,N/A,,Partly Cloudy,130,2013-02-19 09:56:00
6:56 AM,73.0,66.0,79,30.08,10.0,SE,3.5,-,N/A,,Partly Cloudy,140,2013-02-19 10:56:00
7:56 AM,75.0,66.9,76,30.10,10.0,Calm,Calm,-,N/A,,Scattered Clouds,0,2013-02-19 11:56:00
8:56 AM,77.0,66.9,71,30.11,10.0,East,6.9,-,N/A,,Mostly Cloudy,100,2013-02-19 12:56:00
9:39 AM,75.2,68.0,78,30.13,1.8,ESE,10.4,25.3,0.02,Rain,Rain,110,2013-02-19 13:39:00
9:42 AM,73.4,68.0,83,30.13,10.0,ESE,11.5,17.3,0.06,Rain,Light Rain,120,2013-02-19 13:42:00
9:56 AM,75.0,70.0,84,30.13,10.0,East,5.8,-,0.07,,Mostly Cloudy,100,2013-02-19 13:56:00
10:56 AM,77.0,68.0,74,30.14,9.0,East,17.3,26.5,0.00,Rain,Light Rain,80,2013-02-19 14:56:00
11:56 AM,79.0,66.9,66,30.11,10.0,East,10.4,-,0.03,,Mostly Cloudy,100,2013-02-19 15:56:00
12:56 PM,80.1,68.0,67,30.09,10.0,NE,15.0,20.7,N/A,,Overcast,50,2013-02-19 16:56:00
1:56 PM,79.0,69.1,72,30.06,10.0,ENE,16.1,23.0,0.00,,Overcast,70,2013-02-19 17:56:00
2:56 PM,82.0,66.0,58,30.04,10.0,East,20.7,28.8,N/A,,Scattered Clouds,90,2013-02-19 18:56:00
3:56 PM,81.0,68.0,65,30.04,10.0,East,18.4,25.3,N/A,,Scattered Clouds,90,2013-02-19 19:56:00
4:56 PM,79.0,69.1,72,30.04,10.0,East,18.4,-,N/A,,Scattered Clouds,80,2013-02-19 20:56:00
5:56 PM,78.1,66.0,66,30.04,10.0,East,18.4,25.3,N/A,,Scattered Clouds,90,2013-02-19 21:56:00
6:56 PM,75.9,68.0,76,30.05,10.0,East,15.0,-,N/A,,Scattered Clouds,80,2013-02-19 22:56:00
8:56 PM,75.9,68.0,76,30.08,10.0,East,11.5,-,N/A,,Scattered Clouds,80,2013-02-20 00:56:00
9:56 PM,75.9,68.0,76,30.09,10.0,East,11.5,-,N/A,,Scattered Clouds,90,2013-02-20 01:56:00
10:56 PM,77.0,68.0,74,30.09,10.0,East,9.2,-,N/A,,Mostly Cloudy,100,2013-02-20 02:56:00
11:56 PM,75.0,70.0,84,30.08,10.0,ESE,4.6,-,0.01,,Mostly Cloudy,120,2013-02-20 03:56:00